Regional Weather Roundup
Issued by NWS Charleston, SC

Current Version | Previous Version | Graphics & Text | Print | Product List | Glossary On
Versions: 1 2 3 4 5 6 7 8 9 10 11 12 13 14 15 16 17 18 19 20 21 22 23 24 25 26 27 28 29 30 31 32 33 34 35 36 37 38 39 40 41 42 43 44 45 46 47 48 49 50
000
ASUS42 KCHS 271412
RWRCHS

REGIONAL WEATHER ROUNDUP
NATIONAL WEATHER SERVICE CHARLESTON SC
1000 AM EDT THU AUG 27 2015

NOTE: "FAIR" INDICATES FEW OR NO CLOUDS BELOW 12,000 FEET WITH NO
SIGNIFICANT WEATHER AND/OR OBSTRUCTIONS TO VISIBILITY.

NOT ALL STATIONS ARE QUALITY CONTROLLED BY THE NATIONAL
WEATHER SERVICE. USE DATA WITH CAUTION...ESPECIALLY
DEWPOINT OBSERVATIONS.

SCZ027-030-031-034>040-042>050-271500-
...SOUTHEAST SOUTH CAROLINA...

CITY           SKY/WX    TMP DP  RH WIND       PRES   REMARKS
N CHARLESTON   CLOUDY    78  70  76 NE7       30.00R
WATERFRONT PRK   N/A     77  74  91 N7        29.96R
MOUNT PLEASANT FAIR      75  72  88 N5        30.01R
JOHNS ISLAND   FAIR      79  75  89 N5        30.00R
PINOPOLIS        N/A     77  72  83 NE9       29.91S
MONCKS CORNER  FAIR      77  70  78 NE7       30.00R
SUMMERVILLE    FAIR      77  73  88 NE3       30.01R
BEAUFORT MCAS  CLOUDY    83  75  77 CALM      29.98R HX  90
BEAUFORT ARPT  PTSUNNY   81  77  89 CALM      29.97R
HILTON HEAD IS PTSUNNY   81  73  78 CALM      29.98R
WALTERBORO     PTSUNNY   81  70  69 NE7       30.00R
ALLENDALE      CLOUDY    75  72  88 N7        30.00R

...SOUTHERN MIDLANDS AND PEE DEE...

CITY           SKY/WX    TMP DP  RH WIND       PRES   REMARKS
GEORGETOWN     NOT AVBL
KINGSTREE      NOT AVBL
ORANGEBURG     CLOUDY    76  69  79 E6        30.02R
BARNWELL       CLOUDY    75  72  88 N10       30.02R
AIKEN          CLOUDY    72  64  78 NE9       30.07R
MANNING        CLOUDY    73  70  88 N3        30.02R
COLUMBIA       CLOUDY    77  67  71 NE7       30.03R
SUMTER         PTSUNNY   77  68  73 NE10      30.01R
FLORENCE       CLOUDY    75  70  84 NE9       30.03R
MYRTLE BEACH   CLOUDY    73  68  83 NE8       30.03R
N MYRTLE BEACH CLOUDY    76  72  87 NE3       30.01R

$$

GAZ063-065-086>088-099>101-113>116-118-119-134>141-150-271500-
...SOUTHEAST GEORGIA...

CITY           SKY/WX    TMP DP  RH WIND       PRES   REMARKS
SAVANNAH ARPT  PTSUNNY   81  73  76 E3        29.97R
HUNTER AAF     PTSUNNY   79  79  99 NE5       29.95R
FORT STEWART   MOSUNNY   79  72  80 CALM      29.95R
STATESBORO     PTSUNNY   77  77 100 E7        29.99R
SYLVANIA       MOSUNNY   78  75  89 MISG      30.01R
CLAXTON        NOT AVBL

...CSRA...CENTRAL AND FAR SOUTHEAST GEORGIA...

CITY           SKY/WX    TMP DP  RH WIND       PRES   REMARKS
THOMSON        CLOUDY    75  71  87 NE9       30.08R
AUGUSTA-BUSH   CLOUDY    74  69  85 NE12      30.02R
AUGUSTA-DANIEL CLOUDY    74  68  81 NE7       30.04R
SWAINSBORO     FAIR      81  73  78 NE3       30.00R
VIDALIA        SUNNY     79  70  73 N3        29.99R
EASTMAN        FAIR      77  74  91 E6        30.01R
HAZLEHURST     FAIR      80  67  65 NE3       29.97R
ALMA           SUNNY     80  66  62 VRB3      29.97R
WAYCROSS       MOSUNNY   82  71  69 CALM      29.97R
JESUP          CLOUDY    79  70  73 CALM      29.98R
BAXLEY         FAIR      81  66  61 E3        29.97R
BRUNSWICK      PTSUNNY   79  70  73 CALM      29.98R
SAINT SIMONS   MOSUNNY   79  70  74 SW5       29.96R

$$

SCZ027-028-034-036>038-045-046-048>050-GAZ119-141-271500-
...LAKE AND SUPPLEMENTAL COASTAL OBSERVATIONS...

STATION/POSITION TIME  TEMP    WIND        PRES    WAVE   SWELL
                       AIR SEA DIR/SP/G            HT/PER HT/PER/DIR
                 (UTC) (F)     (DEG/KT/KT) (MB)    (FT/S) (FT/S/D)
UPR LAKE MARION  NOT AVBL
WINYAH BAY       NOT AVBL
LAKE MURRAY      1300   72      10/  2/  4 1016.6R
ACE BASIN NERRS  NOT AVBL
FORT PULASKI     1306   82 86                N/A
SAPELO ISLAND    1300   79     260/  2     1014.0S

$$

ANZ835-935-AMZ111-154-330-350-352-354-370-450-454-472-271500-
...C-MAN AND BUOY OBSERVATIONS...

STATION/POSITION TIME  TEMP    WIND        PRES    WAVE   SWELL
                       AIR SEA DIR/SP/G            HT/PER HT/PER/DIR
                 (UTC) (F)     (DEG/KT/KT) (MB)    (FT/S) (FT/S/D)
BUOY 41004       1350   80 84  150/ 16/ 17 1015.2R   3/10   2/10
BUOY 41008       1350   81 85  230/  4/  4 1014.9R   2/11   2/100/11
FOLLY BEACH CMAN 1300   80     120/  6/  7 1014.6R
CAPERS NEARSHORE 1308   80      60/  2/  6 1015.0R
FRIPP NEARSHORE  1300   83     130/ 16/ 17 1013.8


STATION/POSITION TIME  TEMP    WIND        PRES    WAVE   SWELL
                       AIR SEA DIR/SP/G            HT/PER HT/PER/DIR
                 (UTC) (F)     (DEG/KT/KT) (MB)    (FT/S) (FT/S/D)
5E ST. MARYS GA  1321      85                N/A     2/11   2/120/11
FRYING PAN BUOY  1350   82 81  170/  6/  6 1015.9R
BUOY 41025       1350   81 82   80/ 12/ 14 1016.0R   4/10   3/120/10
CAPE LOOKOUT NC  1300   76      20/ 11/ 14 1015.6R
BUOY 41002       1350   76 84  330/  6/ 10 1016.5R   4/ 9   3/130/ 9
BUOY 41010       1320   81 85  200/  4/  8 1015.6R
ST AUGUSTINE FL  1400   81 85  230/  3/  5 1015.4R


$$


USA.gov is the U.S. government's official web portal to all federal, state and local government web resources and services.